Florala, AL

4:44 AM CDT on June 27, 2017 (GMT -0500)
Florala

Weather History for K0J4 - May, 2013

Change the Weather History Date:

Monday, May 13, 2013

  Actual Average (KCEW) Record (KCEW)
Temperature  
Mean Temperature 64 °F -  
Max Temperature 77 °F 84 °F 93 °F (1998)
Min Temperature 50 °F 58 °F 46 °F (2006)
Degree Days  
Heating Degree Days 2    
Growing Degree Days 14 (Base 50)    
Moisture  
Dew Point 43 °F    
Average Humidity 56    
Maximum Humidity 83    
Minimum Humidity 24    
Precipitation  
Precipitation 0.00 in - - ()
Sea Level Pressure  
Sea Level Pressure 30.21 in    
Wind  
Wind Speed 4 mph (North)    
Max Wind Speed 12 mph    
Max Gust Speed -    
Visibility 10 miles    
Events      
Averages and records for this station are not official NWS values.
T = Trace of Precipitation, MM = Missing Value Source: NWS Daily Summary

Daily Weather History Graph

Daily Weather History Graph

Search for Another Location

Airport or City:

Trip Planner

Search our weather history database for the weather conditions in past years. The results will help you decide how hot, cold, wet, or windy it might be!

Date:

Astronomy

May. 13, 2013 Rise Set
Actual Time 5:50 AM CDT 7:32 PM CDT
Civil Twilight 5:24 AM CDT 7:59 PM CDT
Nautical Twilight 4:52 AM CDT 8:30 PM CDT
Astronomical Twilight 4:19 AM CDT 9:04 PM CDT
Moon 8:37 AM CDT (5/13) 10:41 PM CDT (5/13)
Length of Visible Light 14h 34m
Length of Day
13h 41m
Waxing Crescent, 12% of the Moon is Illuminated
May 13
Waxing Crescent
May 17
First Quarter
May 24
Full
May 31
Last Quarter
Jun 8
New

Hourly Weather History & Observations

Time (CDT) Temp. Dew Point Humidity Pressure Visibility Wind Dir Wind Speed Gust Speed Precip Events Conditions
12:58 AM 55.9 °F 48.9 °F 77% 30.13 in 10.0 mi Calm Calm - N/A   Clear
1:58 AM 55.0 °F 46.9 °F 74% 30.14 in 10.0 mi NNW 3.5 mph - N/A   Clear
2:58 AM 53.1 °F 46.9 °F 80% 30.15 in 10.0 mi North 4.6 mph - N/A   Clear
3:58 AM 52.0 °F 45.0 °F 77% 30.16 in 10.0 mi Calm Calm - N/A   Clear
4:58 AM 50.0 °F 45.0 °F 83% 30.17 in 10.0 mi North 3.5 mph - N/A   Clear
5:58 AM 50.0 °F 44.1 °F 80% 30.20 in 10.0 mi North 3.5 mph - N/A   Clear
6:58 AM 54.0 °F 44.1 °F 69% 30.23 in 10.0 mi North 4.6 mph - N/A   Clear
7:58 AM 57.9 °F 44.1 °F 60% 30.26 in 10.0 mi NNE 4.6 mph - N/A   Clear
8:58 AM 64.0 °F 39.9 °F 41% 30.27 in 10.0 mi NE 11.5 mph - N/A   Clear
9:58 AM 66.9 °F 37.9 °F 34% 30.28 in 10.0 mi NNE 10.4 mph - N/A   Clear
10:58 AM 70.0 °F 39.0 °F 32% 30.28 in 10.0 mi NNE 9.2 mph - N/A   Clear
11:58 AM 71.1 °F 37.0 °F 29% 30.27 in 10.0 mi Calm Calm - N/A   Clear
12:58 PM 73.0 °F 35.1 °F 25% 30.25 in 10.0 mi NNE 9.2 mph - N/A   Clear
1:58 PM 75.0 °F 37.0 °F 25% 30.23 in 10.0 mi Variable 4.6 mph - N/A   Clear
3:58 PM 77.0 °F 37.0 °F 24% 30.20 in 10.0 mi North 9.2 mph - N/A   Clear
4:58 PM 75.9 °F 37.9 °F 25% 30.19 in 10.0 mi North 5.8 mph - N/A   Clear
5:58 PM 75.0 °F 39.0 °F 27% 30.18 in 10.0 mi North 8.1 mph - N/A   Clear
6:58 PM 71.1 °F 42.1 °F 35% 30.19 in 10.0 mi North 3.5 mph - N/A   Clear
7:58 PM 62.1 °F 48.9 °F 62% 30.20 in 10.0 mi Calm Calm - N/A   Clear
8:58 PM 57.9 °F 48.9 °F 72% 30.21 in 10.0 mi Calm Calm - N/A   Clear
9:58 PM 55.9 °F 50.0 °F 80% 30.22 in 10.0 mi Calm Calm - N/A   Clear
10:58 PM 53.1 °F 48.0 °F 83% 30.22 in 10.0 mi Calm Calm - N/A   Clear
11:58 PM 53.1 °F 48.0 °F 83% 30.23 in 10.0 mi Calm Calm - N/A   Clear